This is the latest recevied weather packets stored in our database for station/object KE8KMM. If no packets are shown the sender has not sent any weather packets the latest 10 day(s).
| Time | Temp. | Humidity | Pressure | Rain* | Wind** | Luminosity | Snow |
|---|---|---|---|---|---|---|---|
| 1777942575 | 18.33° C | 69% | 1004.9 hPa | 0 mm | - | 0 W/m² | - |
| 1777942273 | 18.89° C | 67% | 1004.9 hPa | 0 mm | - | 0 W/m² | - |
| 1777941970 | 18.89° C | 69% | 1004.7 hPa | 0 mm | - | 0 W/m² | - |
| 1777941667 | 18.89° C | 67% | 1004.9 hPa | 0 mm | - | 0 W/m² | - |
| 1777941364 | 18.89° C | 68% | 1004.8 hPa | 0 mm | - | 0 W/m² | - |
| 1777941061 | 18.89° C | 67% | 1004.7 hPa | 0 mm | - | 0 W/m² | - |
| 1777940756 | 19.44° C | 66% | 1004.5 hPa | 0 mm | - | 2 W/m² | - |
| 1777940455 | 19.44° C | 65% | 1004.9 hPa | 0 mm | - | 3 W/m² | - |
| 1777940152 | 20° C | 64% | 1004.6 hPa | 0 mm | - | 5 W/m² | - |
| 1777939849 | 20° C | 64% | 1004.7 hPa | 0 mm | - | 7 W/m² | - |
| 1777939546 | 20° C | 63% | 1004.5 hPa | 0 mm | - | 10 W/m² | - |
| 1777939244 | 20° C | 63% | 1004.8 hPa | 0 mm | - | 13 W/m² | - |
| 1777938940 | 20° C | 62% | 1004.6 hPa | 0 mm | - | 17 W/m² | - |
| 1777938637 | 20.56° C | 63% | 1004.6 hPa | 0 mm | - | 22 W/m² | - |
| 1777938334 | 20.56° C | 62% | 1004.9 hPa | 0 mm | - | 29 W/m² | - |
| 1777938031 | 20.56° C | 61% | 1005.1 hPa | 0 mm | - | 32 W/m² | - |
| 1777937726 | 20.56° C | 61% | 1004.9 hPa | 0 mm | - | 42 W/m² | - |
| 1777937424 | 20.56° C | 61% | 1005 hPa | 0 mm | - | 42 W/m² | - |
| 1777937121 | 20.56° C | 61% | 1004.9 hPa | 0 mm | - | 39 W/m² | - |
| 1777936818 | 20.56° C | 60% | 1005 hPa | 0 mm | - | 40 W/m² | - |
| 1777936515 | 21.11° C | 60% | 1004.9 hPa | 0 mm | - | 46 W/m² | - |
| 1777936211 | 21.11° C | 59% | 1005.3 hPa | 0 mm | - | 57 W/m² | - |
| 1777935907 | 21.67° C | 59% | 1005 hPa | 0 mm | - | 50 W/m² | - |
| 1777935606 | 21.67° C | 58% | 1005.1 hPa | 0 mm | - | 75 W/m² | - |
| 1777935303 | 22.22° C | 57% | 1005.1 hPa | 0 mm | - | 150 W/m² | - |
* Rain latest hour (hover to see other rain measurements)
** Current wind speed in m/s (hover to see current wind gust speed)